星链-31826 (STARLINK-31826 )

导读 | 星芒AI

STARLINK-31826 是 SpaceX 星链(Starlink)卫星互联网项目中的第 31826 颗卫星。该卫星属于星链计划的第二代星座部署,旨在通过低轨卫星提供全球高速互联网服务。它于近期由猎鹰九号火箭发射入轨,运行在约 550 公里的近地轨道,具备高速数据传输和激光通信能力,以提升网络稳定性和减少延迟。该卫星的部署有助于扩大星链服务的覆盖范围,特别是在偏远和网络基础设施薄弱的地区。

基本信息
目录编号:
59768
目录名称:
STARLINK-31826
国际标识:
2024-091R
轨道中心:
EARTH
卫星名称:
星链-31826
卫星全名:
星链-31826 (STARLINK-31826 )
卫星状态:
在轨 (已飞行537 天)
发射日期:
2024-05-14 UTC
国别 :
美国 (US)
星等 :
--
轨道信息
数据来源 国际轨道数据
星历时间: 2025-11-01T22:41:25+0800
19小时前
查看轨道信息
半长轴: 6853.387km
偏心率: 0.0001479
轨道倾角: 53.161°
近地点辐角 90.002°
升交点赤经 261.902°
平近点角 270.115°
近地点: 474.238km
远地点: 476.266km
周期: 94.106分钟
每日圈数: 15.301885
详细信息
固有亮度:
5
最大亮度:
1.5
卫星平台:
Starlink v2.0 mini
覆盖范围:
全球
运营商:
太空探索技术公司
运营商所在国:
美国
制造商(研发单位):
太空探索技术公司
制造商所在国:
美国
使用方式:
暂无
卫星简介
星链(Starlink)计划是由太空探索技术公司(SpaceX)提出的一个巨型低轨卫星互联网星座项目,计划在2019年至2024年间在太空搭建由约1.2万颗卫星组成的“星链”网络,其中1584颗将部署在地球上空550千米处的近地轨道,并从2020年开始工作。该卫星仍在工作。
2D轨道图
3D轨道图
轨道高度分析图
轨道倾角分析图
轨道综合分析图
查看轨道综合分析图